Effective Sunday, March 17, 2024, the National Weather Service National Data Buoy Center will discontinue its Dial-A-Buoy Interactive Voice Response system. For more information, see Service Change Notice 24-06 (PDF).

Station PRHH1 - 1612401 - Pearl Harbor, HI Image indicating link to RSS feed of recent meteorological observations for station PRHH1


Conditions at PRHH1 as of
(9:12 am HAST)
1912 GMT on 02/29/2024:
Note: This report is more than two hours old
     

Click on the graph icon in the table below to see a time series plot of the last five days of that observation.

5-day plot - Wind Direction Wind Direction (WDIR): NE ( 40 deg true )
5-day plot - Wind Speed Wind Speed (WSPD): 4.1 kts
5-day plot - Wind Gust Wind Gust (GST): 13.0 kts
5-day plot - Atmospheric Pressure Atmospheric Pressure (PRES):30.14 in
5-day plot - Air Temperature Air Temperature (ATMP): 75.2 °F
5-day plot - Wind Speed at 10 Meters Wind Speed at 10 meters (WSPD10M): 3.9 kts
5-day plot - Wind Speed at 20 Meters Wind Speed at 20 meters (WSPD20M): 3.9 kts
5-day plot -  Wind Speed, Wind Gust and Atmospheric Pressure Combined plot of Wind Speed, Gust, and Air Pressure
NOS Water Level Observation Network Water Level
Previous observations
TIME
(HAST)
5-day plot - Wind Direction
WDIR
 
5-day plot - Wind Speed
WSPD
kts
5-day plot - Wind Gust
GST
kts
5-day plot - Wave Height
WVHT
ft
5-day plot - Dominant Wave Period
DPD
sec
5-day plot - Average Wave Period
APD
sec
5-day plot - Mean Wave Direction
MWD
 
5-day plot - Atmospheric Pressure
PRES
in
5-day plot - Pressure Tendency
PTDY
in
5-day plot - Air Temperature
ATMP
°F
5-day plot - Water Temperature
WTMP
°F
5-day plot - Dew Point
DEWP
°F
5-day plot - Salinity
SAL
psu
5-day plot - Visibility
VIS
nmi
5-day plot - Tide (above MLLW)
TIDE
ft
2024-02-29 09:06 amNNE 8.0 14.0----30.13- 74.8-----
2024-02-29 09:00 am NE 4.1 12.0----30.13+0.04------
2024-02-29 08:54 amNNE 7.0 8.0----30.13- 74.5-----
2024-02-29 08:48 amNNE 7.0 8.9----30.13- 74.5-----
2024-02-29 08:42 am NE 5.1 12.0----30.13- 74.5-----
2024-02-29 08:36 amENE 1.9 8.0----30.13- 74.5-----
2024-02-29 08:30 amNNE 6.0 8.0----30.12- 73.9-----
2024-02-29 08:24 amNNE 2.9 6.0----30.12- 74.1-----
2024-02-29 08:18 amNNE 6.0 8.0----30.12- 73.6-----
2024-02-29 08:12 amENE 2.9 6.0----30.12- 73.2-----
2024-02-29 08:06 am NE 1.9 7.0----30.12- 72.9-----
2024-02-29 08:00 amNNE 6.0 8.9----30.12+0.05 72.7-----
2024-02-29 07:54 am NE 7.0 9.9----30.12- 72.7-----
2024-02-29 07:48 amENE 4.1 6.0------------
2024-02-29 07:42 am- 0.0 2.9----30.12- 72.3-----
2024-02-29 07:36 am- 0.0 1.9----30.11- 72.1-----
2024-02-29 07:30 am E 1.9 4.1----30.11-------
2024-02-29 07:24 amENE 1.9 4.1----30.11- 71.4-----
2024-02-29 07:18 amNNE 1.9 5.1----30.11- 71.2-----
2024-02-29 07:12 amNNE 4.1 6.0----30.11- 71.4-----
2024-02-29 07:06 am NE 4.1 7.0----30.11- 71.2-----
2024-02-29 07:00 am NE 2.9 5.1----30.10+0.04 71.1-----
2024-02-29 06:54 am NE 2.9 7.0----30.10- 71.2-----
2024-02-29 06:48 amNNE 4.1 6.0----30.10- 71.1-----
2024-02-29 06:42 amNNE 7.0 8.9----30.10- 70.7-----
2024-02-29 06:36 amENE 2.9 5.1----30.10- 69.8-----
2024-02-29 06:30 am E 1.9 6.0----30.09- 69.6-----
2024-02-29 06:24 amESE 4.1 7.0----30.09- 69.8-----
2024-02-29 06:18 am E 5.1 8.9----30.09- 69.8-----
2024-02-29 06:12 am E 8.0 11.1----30.09- 70.3-----
2024-02-29 06:06 amENE 2.9 5.1----30.09- 70.5-----
2024-02-29 06:00 am NE 2.9 5.1----30.09+0.01 70.3-----
2024-02-29 05:54 amNNE 1.9 6.0----30.09- 70.2-----
2024-02-29 05:48 am E 2.9 4.1----30.09- 70.0-----
2024-02-29 05:42 am NE 2.9 5.1----30.09- 70.2-----
2024-02-29 05:36 am NE 4.1 7.0----30.09- 70.3-----
2024-02-29 05:30 amNNE 6.0 8.9----30.09- 70.5-----
2024-02-29 05:24 am NE 5.1 7.0----30.08- 70.7-----
2024-02-29 05:18 amNNE 5.1 7.0----30.08- 70.9-----
2024-02-29 05:12 amNNE 7.0 9.9----30.07- 71.1-----
2024-02-29 05:06 amNNE 7.0 8.9----30.07- 71.2-----
2024-02-29 05:00 am N 6.0 8.9----30.07-0.03 71.4-----
2024-02-29 04:54 amNNE 2.9 7.0----30.07- 71.1-----
2024-02-29 04:48 amNNE 6.0 11.1----30.07- 71.1-----
2024-02-29 04:42 amNNE 5.1 8.9----30.07- 71.2-----
2024-02-29 04:36 am N 6.0 7.0----30.07- 71.4-----
2024-02-29 04:30 am N 2.9 5.1----30.06- 71.4-----
2024-02-29 04:24 am NE 1.9 6.0----30.06- 71.1-----
2024-02-29 04:18 amENE 1.9 7.0----30.06- 70.9-----
2024-02-29 04:12 am N 6.0 8.9----30.06- 71.4-----
2024-02-29 04:06 amNNW 5.1 7.0----30.06- 71.2-----
2024-02-29 04:00 am N 4.1 6.0----30.06-0.06 70.9-----
2024-02-29 03:54 amNNE 1.9 5.1----30.06- 70.2-----
2024-02-29 03:48 am NE 1.9 5.1----30.06- 70.0-----
2024-02-29 03:42 am NE 1.9 4.1----30.06- 70.0-----
2024-02-29 03:36 am NE 2.9 5.1----30.06- 69.8-----
2024-02-29 03:30 amNNE 1.9 5.1----30.06- 70.0-----
2024-02-29 03:24 amNNE 1.9 5.1----30.06- 69.8-----
2024-02-29 03:18 amNNW 4.1 7.0----30.06- 69.8-----
2024-02-29 03:12 amWNW 4.1 7.0----30.07- 69.1-----
2024-02-29 03:06 amWNW 6.0 7.0----30.07- 68.5-----
2024-02-29 03:00 amWNW 6.0 8.9----30.07-0.07 68.5-----
2024-02-29 02:54 amWNW 6.0 8.0----30.07- 68.4-----
2024-02-29 02:48 amWNW 5.1 6.0----30.08- 68.0-----
2024-02-29 02:42 amWNW 4.1 5.1----30.08- 67.8-----
2024-02-29 02:36 am W 4.1 5.1----30.09- 67.8-----
2024-02-29 02:30 am W 5.1 6.0----30.09- 67.8-----
2024-02-29 02:24 am NW 5.1 6.0----30.09- 68.0-----
2024-02-29 02:18 amNNW 5.1 8.9----30.09- 67.6-----
2024-02-29 02:12 am N 2.9 5.1----30.10- 67.5-----
2024-02-29 02:06 amNNE 2.9 4.1----30.10- 67.3-----
2024-02-29 02:00 amENE 1.9 4.1----30.10-0.04 67.5-----
2024-02-29 01:54 amENE 1.9 5.1----30.10- 67.8-----
2024-02-29 01:48 amENE 2.9 5.1----30.11- 68.2-----
2024-02-29 01:42 amENE 4.1 6.0----30.11- 68.2-----
2024-02-29 01:36 amENE 2.9 6.0----30.11- 68.2-----
2024-02-29 01:30 am NE 2.9 4.1----30.11- 68.2-----
2024-02-29 01:24 am- 0.0 2.9----30.11- 68.5-----
2024-02-29 01:18 am NW 1.9 6.0----30.12- 68.5-----
2024-02-29 01:12 am N 5.1 7.0----30.12- 68.7-----
2024-02-29 01:06 am NE 5.1 9.9----30.12- 68.4-----
2024-02-29 01:00 am NE 2.9 5.1----30.12-0.01 68.2-----
2024-02-29 12:54 amNNE 4.1 7.0----30.12-------
2024-02-29 12:48 amNNE 4.1 8.9----30.12-------
2024-02-29 12:42 amNNE 5.1 8.0----30.12- 68.5-----
2024-02-29 12:36 amNNE 5.1 8.0----30.12- 68.9-----
2024-02-29 12:30 amNNE 5.1 9.9----30.12- 69.4-----
2024-02-29 12:24 amNNE 7.0 8.9----30.12- 70.0-----
2024-02-29 12:18 amNNE 7.0 9.9----30.12- 70.0-----
2024-02-29 12:12 am N 7.0 9.9----30.12- 69.3-----
2024-02-29 12:06 am N 5.1 8.0----30.13- 69.3-----
2024-02-29 12:00 amNNE 4.1 8.9----30.14+0.01 69.1-----
2024-02-28 11:54 pm NE 6.0 8.9----30.14- 69.3-----
2024-02-28 11:48 pm NE 2.9 6.0----30.14- 69.4-----
2024-02-28 11:42 pm NE 2.9 5.1----30.14- 69.4-----
2024-02-28 11:36 pm NE 1.0 2.9----30.13- 69.1-----
2024-02-28 11:30 pm N 1.9 2.9----30.13- 68.9-----
2024-02-28 11:24 pmNNE 2.9 5.1----30.14- 68.7-----
2024-02-28 11:18 pm E 5.1 7.0----30.15- 68.7-----
2024-02-28 11:12 pm NE 5.1 8.0----30.15- 68.7-----
2024-02-28 11:00 pm NE 4.1 5.1----30.14+0.04 68.9-----
2024-02-28 10:54 pm NE 1.9 2.9----30.14- 68.9-----
2024-02-28 10:48 pm- 0.0 4.1----30.14- 69.1-----
2024-02-28 10:42 pm N 1.9 4.1----30.14- 69.1-----
2024-02-28 10:24 pm E 4.1 9.9----30.14- 70.2-----
2024-02-28 10:18 pmNNE 9.9 11.1----30.14- 70.9-----
2024-02-28 10:12 pm N 7.0 11.1----30.14- 70.9-----
2024-02-28 10:00 pmNNE 7.0 9.9----30.13+0.04 70.0-----
2024-02-28 09:54 pmNNE 2.9 5.1----30.14- 70.2-----
2024-02-28 09:48 pmNNE 4.1 8.9----30.14- 70.0-----
2024-02-28 09:42 pm N 8.0 12.0----30.14- 69.8-----
2024-02-28 09:36 pmNNE 7.0 14.0----30.13- 70.0-----
2024-02-28 09:30 pmNNE 8.9 9.9----30.13- 70.0-----
2024-02-28 09:24 pm N 6.0 8.0----30.13- 69.8-----
2024-02-28 09:18 pmNNE 1.9 6.0----30.12- 69.3-----
2024-02-28 09:12 pmNNE 4.1 6.0----30.12- 69.4-----
2024-02-28 09:06 pmNNE 4.1 7.0----30.13- 69.8-----
2024-02-28 09:00 pm N 8.0 9.9----30.13+0.05 70.3-----
2024-02-28 08:54 pmNNW 8.0 8.9----30.12- 70.0-----
2024-02-28 08:48 pm N 7.0 8.9----30.12- 69.8-----
2024-02-28 08:42 pm N 8.9 12.0----30.12- 70.0-----
2024-02-28 08:36 pmNNE 7.0 8.9----30.12- 70.0-----
2024-02-28 08:30 pmNNE 6.0 8.0----30.12- 70.2-----
2024-02-28 08:24 pmNNE 8.0 11.1----30.12- 70.3-----
2024-02-28 08:18 pm NE 6.0 8.9----30.12- 70.3-----
2024-02-28 08:12 pm NE 8.0 13.0----30.12- 70.3-----
2024-02-28 08:06 pmNNE 8.0 12.0------------
2024-02-28 08:00 pmNNE 8.9 15.9----30.11+0.05 71.6-----
2024-02-28 07:54 pmNNE 8.9 13.0----30.11- 71.8-----
2024-02-28 07:48 pm N 7.0 13.0----30.10- 71.4-----
2024-02-28 07:42 pm N 11.1 15.0----30.10- 71.2-----
2024-02-28 07:30 pmNNE 9.9 13.0----30.10- 72.0-----
2024-02-28 07:24 pmNNE 6.0 8.9----30.09- 72.0-----
2024-02-28 07:18 pm N 8.0 9.9----30.09- 72.1-----
2024-02-28 07:12 pmNNE 8.0 15.0----30.09- 72.1-----
2024-02-28 07:00 pmNNE 8.9 11.1----30.09- 71.8-----
2024-02-28 06:54 pm N 7.0 12.0----30.09- 71.8-----
2024-02-28 06:48 pm N 11.1 14.0------------
2024-02-28 06:42 pmNNE 12.0 15.0----30.09- 71.4-----
2024-02-28 06:36 pm N 11.1 14.0----30.09- 72.3-----
2024-02-28 06:30 pmNNE 11.1 15.9----30.09- 72.3-----
2024-02-28 06:24 pm N 9.9 15.0----30.09- 72.5-----
2024-02-28 06:18 pmNNE 8.0 11.1----30.09- 71.8-----
2024-02-28 06:12 pmNNE 11.1 13.0----30.09- 71.8-----
2024-02-28 06:06 pmNNE 8.9 13.0----30.08- 73.0-----
2024-02-28 06:00 pmNNE 11.1 15.0----30.08+0.02 73.0-----
2024-02-28 05:54 pmNNE 12.0 14.0----30.08- 72.9-----
2024-02-28 05:48 pm N 12.0 15.0----30.08- 72.9-----
2024-02-28 05:42 pmNNE 13.0 19.0----30.08- 73.0-----
2024-02-28 05:36 pmNNE 14.0 17.1----30.07- 73.2-----
2024-02-28 05:30 pmNNE 7.0 13.0----30.07- 73.8-----
2024-02-28 05:24 pmNNE 7.0 13.0----30.07- 73.6-----
2024-02-28 05:18 pmNNE 11.1 15.0----30.06- 74.3-----
2024-02-28 05:12 pmNNE 11.1 15.9----30.06- 74.5-----
2024-02-28 05:06 pmNNE 12.0 15.9----30.06- 74.3-----
2024-02-28 05:00 pmNNE 12.0 18.1----30.06-0.01 74.3-----
2024-02-28 04:54 pmNNE 13.0 17.1----30.06- 74.3-----
2024-02-28 04:48 pmNNE 12.0 18.1----30.06- 74.5-----
2024-02-28 04:42 pmNNE 12.0 17.1----30.06- 74.3-----
2024-02-28 04:36 pm N 11.1 15.0----30.06- 74.3-----
2024-02-28 04:30 pm NE 13.0 15.0----30.06- 74.3-----
2024-02-28 04:24 pm N 8.9 11.1----30.06- 74.3-----
2024-02-28 04:18 pm N 11.1 17.1----30.06- 74.1-----
2024-02-28 04:12 pmNNE 11.1 18.1----30.05- 74.1-----
2024-02-28 04:06 pm N 14.0 18.1----30.06- 74.1-----
2024-02-28 04:00 pmNNE 13.0 18.1------------
2024-02-28 03:54 pmNNE 15.0 19.0----30.05- 73.9-----
2024-02-28 03:48 pmNNE 13.0 17.1----30.05- 73.9-----
2024-02-28 03:42 pmNNE 12.0 18.1----30.05- 73.9-----
2024-02-28 03:36 pm N 11.1 17.1----30.05- 73.6-----
2024-02-28 03:30 pm N 13.0 19.0----30.05- 73.6-----
2024-02-28 03:24 pmNNE 12.0 17.1----30.05- 74.1-----
2024-02-28 03:18 pm N 13.0 17.1----30.06- 74.3-----
2024-02-28 03:12 pm N 13.0 18.1----30.05- 74.3-----
2024-02-28 03:06 pmNNE 9.9 15.9----30.06- 75.2-----
2024-02-28 03:00 pmNNE 13.0 19.0----30.06-0.06 74.8-----
2024-02-28 02:54 pmNNE 13.0 19.0----30.06- 75.2-----